Regional Weather Roundup
Issued by NWS Albany, NY

Home | Current Version | Previous Version | Text Only | Print | Product List | Glossary On
Versions: 1 2 3 4 5 6 7 8 9 10 11 12 13 14 15 16 17 18 19 20 21 22 23 24 25 26 27 28 29 30 31 32 33 34 35 36 37 38 39 40 41 42 43 44 45 46 47 48 49 50
000
ASUS41 KALY 041210
RWRALY

NEW YORK STATE HOURLY WEATHER ROUNDUP
NATIONAL WEATHER SERVICE ALBANY NY
700 AM EST SUN DEC 04 2016

NOTE: "FAIR" INDICATES FEW OR NO CLOUDS BELOW 12,000 FEET WITH NO
SIGNIFICANT WEATHER AND/OR NO OBSTRUCTIONS TO VISIBILITY.

NYZ032-033-038>043-046>054-057>066-NYZ062>081-082-084-041300-
EAST


CITY           SKY/WX    TMP DP  RH WIND       PRES   REMARKS
ALBANY         MOCLDY    30  20  66 NW6       30.22R WCI  24
GLENS FALLS    CLOUDY    34  19  54 MISG      30.21R
POUGHKEEPSIE   CLOUDY    26  23  88 CALM      30.21R
NEWBURGH       PTCLDY    30  25  80 NW7       30.20R WCI  23
MONTGOMERY     PTCLDY    30  20  66 SW3       30.20R
WHITE PLAINS   PTCLDY    31  24  75 CALM      30.18R
ISLIP          PTCLDY    28  23  81 CALM      30.20R
NEW YORK CITY  PTCLDY    41  25  53 NW13G22   30.22R
CENTRAL PARK   PTCLDY    39  21  48 NW12G17   30.24R WCI  32
$$

NYZ005>009-017-018-044>046-055-056-041300-
CENTRAL


CITY           SKY/WX    TMP DP  RH WIND       PRES   REMARKS
FULTON         CLOUDY    31  21  66 NE3       30.25R
SYRACUSE       CLOUDY    30  21  69 CALM      30.25R
ROME           CLOUDY    27  20  75 N6        30.25S WCI  20
ELMIRA         CLOUDY    34  25  69 NE5       30.21S WCI  30
BINGHAMTON     CLOUDY    30  23  75 N12       30.17R WCI  20
MONTICELLO     CLOUDY    30  21  69 NW12G17   30.17R WCI  21
$$

NYZ026>034-041>043-087-041300-
NORTH


CITY           SKY/WX    TMP DP  RH WIND       PRES   REMARKS
WATERTOWN      CLOUDY    28  19  69 N8        30.27R WCI  20
FORT DRUM      NOT AVBL
OGDENSBURG     MOCLDY    30  23  75 W5        30.27R WCI  25
MASSENA        CLOUDY    31  19  61 NW5       30.26S WCI  26
SARANAC LAKE   CLOUDY    23  18  81 CALM      30.15R
PLATTSBURGH    CLOUDY    31  21  66 VRB5      30.22R WCI  26
$$

NYZ001>004-010>016-019>021-085-041300-
WEST


CITY           SKY/WX    TMP DP  RH WIND       PRES   REMARKS
NIAGARA FALLS  MOCLDY    37  29  72 N5        30.24S WCI  33
BUFFALO        MOCLDY    36  31  82 N3        30.23S
DUNKIRK        CLOUDY    38  31  76 NE6       30.23S WCI  33
JAMESTOWN      CLOUDY    32  28  86 CALM      30.18F
WELLSVILLE     CLOUDY    33  24  69 NW6       30.18F WCI  28
ROCHESTER      PTCLDY    28  25  88 SW3       30.25R
PENN YAN       CLOUDY    34  25  69 VRB3      30.23S
$$

             KEY
       WCI = WIND CHILL INDEX
       VSB = VISIBILITY
       HX  = HEAT INDEX
$$



USA.gov is the U.S. government's official web portal to all federal, state and local government web resources and services.